SCP
0 0 0 0 0 0 0 0 0 0 0 0 0 0 0 0 0 0 0 0 0 0 0 0 0 0 0 0 0 0 0 -0 -0 0 0 0 -0 -0
0 0 0 0 0 0 0 0 0 0 0 0 0 0 0 0 0 0 0 0 0 0 0 0 0 0 0 0 0 0 0 0 0 0 0 -0 -0 -0
0 0 0 0 0 0 0 0 0 0 0 0 0 0 0 0 0 0 0 0 0 0 0 0 0 0 0 0 0 0 0 0 0 0 0 0 0 0
0 0 0 0 0 0 0 0 0 0 0 0 0 0 0 0 0 0 0 0 0 0 0 0 0 0 0 0 0 0 0 0 0 0 -0 0 0 0
0 0 0 0 0 0 0 0 0 0 0 0 0 0 0 0 0 0 0 0 0 0 -0 0 0 0 0 0 0 0 0 -0 0 0 0 0 0 0
0 0 0 0 0 0 0 0 0 0 0 0 0 0 0 0 0 0 0 0 0 0 0 0 0 0 0 0 0 0 0 0 -0 -0 -0 -0 0 0
0 0 0 0 0 0 0 0 0 0 0 0 0 0 0 0 0 0 0 0 0 0 0 0 0 0 0 0 0 0 0 0 0 0 0 0 0 0
0 0 0 0 0 0 0 0 0 0 0 0 0 0 0 0 0 0 0 0 0 0 0 0 0 0 0 0 0 0 0 0 0 0 0 0 0 0
0 0 0 0 0 0 0 0 0 0 0 0 0 0 0 0 0 0 0 0 0 0 0 0 0 0 0 0 0 0 0 0 0 0 0 0 0 0
0 0 0 0 0 0 0 0 0 0 0 0 0 0 0 0 0 0 0 0 0 0 0 0 0 0 0 0 0 0 0 0 0 0 0 0 0 0
0 0 0 0 0 0 0 0 0 0 0 0 0 0 0 0 0 0 0 0 0 0 0 0 0 0 0 0 0 0 0 0 0 0 0 0 0 0
0 0 0 0 0 0 0 0 -0 -0 -0 0 0 0 0 0 0 0 0 0 0 0 0 0 0 0 0 0 0 0 0 0 0 0 0 0 0 0
0 0 0 0 0 0 0 0 -0 -0 -0 -0 0 0 0 0 0 0 0 0 0 0 0 0 0 0 0 0 0 0 0 0 0 0 0 0 0 0
0 0 0 0 0 0 0 0 -0 -0 -0 -0 -0 0 0 0 0 0 0 0 0 0 0 0 0 0 0 0 0 0 0 0 0 0 0 0 0 0
0 0 0 0 0 0 0 0 -0 -0 -0 -0 0 0 0 0 0 0 -0 -0 0 0 0 0 0 0 0 0 0 0 0 0 0 0 0 0 0 0
0 0 0 0 0 0 0 0 -0 -0 -0 -0 0 0 0 0 0 0 -0 -0 0 0 0 -0 -0 -0 -0 -0 0 0 0 0 0 0 0 0 0 0
0 0 0 0 0 0 0 0 -0 0 0 0 0 0 0 0 0 0 0 0 0 -0 -0 0 -0 0 -0 -0 0 0 0 0 0 0 0 0 0 0
0 0 0 0 0 0 0 0 0 0 0 0 0 0 0 0 0 0 0 0 -0 0 -0 0 0 0 0 0 0 0 0 0 0 0 0 0 0 0
0 0 0 0 0 0 0 0 0 0 0 0 0 0 0 0 0 0 0 0 -0 -0 -0 0 -0 0 0 0 0 0 0 0 0 0 0 0 0 0
0 0 0 0 0 0 0 0 0 0 0 0 0 0 0 0 0 0 0 -0 -0 -0 0 -0 0 0 0 0 -0 0 0 0 0 0 0 0 0 0
0 0 0 0 0 0 0 0 0 0 0 0 0 0 0 0 0 0 0 -0 -0 0 0 0 0 0 0 0 0 0 0 0 0 0 0 0 0 0
0 0 0 -0 -0 0 0 0 0 0 0 0 0 0 0 0 0 0 0 -0 -0 0 0 0 0 0 0 0 0 0 0 0 0 0 -0 0 0 0
0 0 -0 -0 -0 -0 0 0 0 0 0 0 0 0 -0 0 -0 0 0 0 0 0 0 0 0 0 0 0 0 0 0 0 0 0 0 -0 0 -0
Wind_Speed_500mb
31 28 29 28 29 30 32 33 38 49 48 44 51 48 48 50 54 55 56 58 59 56 55 57 65 65 72 84 86 77 73 69 53 51 55 52 50 54
21 24 25 25 27 29 30 32 35 42 54 48 51 53 55 57 57 61 64 64 63 57 53 53 54 58 62 66 85 95 89 89 67 59 56 58 57 55
22 24 26 30 30 29 29 32 35 40 54 62 60 67 72 74 67 60 57 57 55 51 58 64 55 55 57 64 71 87 98 100 82 75 66 59 59 58
24 26 29 33 34 32 31 38 45 52 54 67 72 75 74 63 62 60 59 53 52 50 54 62 53 54 58 59 68 76 85 93 94 86 75 64 59 59
25 29 36 34 31 32 45 51 49 52 53 63 77 76 78 76 66 61 56 53 44 48 44 50 60 61 58 61 60 69 78 79 89 96 79 70 59 60
29 33 35 30 34 45 48 47 48 58 63 67 72 72 71 72 62 67 59 48 50 46 46 48 48 52 58 54 53 52 64 66 73 93 79 67 63 59
33 33 28 35 43 41 47 52 55 63 67 64 69 70 72 60 62 61 64 68 65 51 42 35 40 45 48 50 52 46 42 49 64 76 73 64 61 52
33 30 31 32 35 46 46 54 63 64 66 64 72 72 76 72 72 67 63 62 56 54 29 42 43 45 45 45 46 52 43 44 57 65 68 68 60 51
30 31 34 30 37 44 54 60 61 57 51 56 60 70 76 77 70 67 67 57 57 53 45 50 41 42 41 44 51 43 40 46 51 61 66 65 57 51
27 30 31 30 35 47 55 59 61 53 44 51 58 68 67 62 57 56 59 62 57 53 37 48 37 43 43 42 46 39 36 40 46 58 65 60 54 48
23 18 21 28 41 48 51 54 58 62 60 61 64 62 63 43 40 38 44 49 48 54 31 32 38 37 39 31 20 34 32 35 46 55 55 50 47 41
15 16 28 34 35 43 41 48 61 68 73 69 63 61 49 37 36 33 40 39 40 46 32 24 28 36 35 35 35 27 28 29 48 49 50 44 37 40
22 22 20 29 32 37 41 44 55 66 71 76 74 62 53 39 33 28 34 43 37 44 48 43 45 31 32 41 43 26 19 23 33 48 47 49 40 43
23 25 28 30 32 33 35 45 56 63 70 76 77 67 57 46 37 31 27 42 38 40 37 37 39 32 37 41 42 34 20 18 25 39 44 40 45 49
25 28 32 35 36 35 41 46 52 65 73 79 77 71 63 55 46 37 32 30 39 33 31 34 39 34 35 34 39 41 32 10 20 30 28 34 53 60
31 33 38 39 37 40 39 39 42 58 72 80 78 74 69 57 50 36 37 34 31 37 28 24 32 34 32 27 29 36 24 11 12 27 27 36 55 57
31 30 34 38 40 46 44 41 43 50 69 79 81 78 76 65 53 43 32 34 35 35 38 30 22 24 25 26 30 31 10 10 4 24 29 31 42 47
28 30 33 37 41 46 47 49 49 55 63 86 89 84 82 72 56 47 38 30 29 33 37 28 21 24 25 27 25 17 6 9 8 17 19 26 34 44
31 35 37 40 43 45 47 50 55 55 58 86 91 89 85 74 61 51 43 32 24 25 28 25 25 26 23 21 7 16 9 8 3 8 23 23 32 34
37 37 39 41 44 47 50 53 56 58 64 86 94 97 88 77 65 54 42 38 32 15 10 15 22 24 22 10 9 7 16 10 6 11 19 23 22 29
38 38 39 42 45 48 50 52 56 62 68 87 94 101 95 83 66 56 45 39 27 12 10 11 17 23 12 15 3 1 7 9 2 3 12 19 24 22
38 39 41 43 46 48 51 55 60 64 73 92 94 102 99 88 75 60 48 40 22 10 5 19 21 14 7 10 15 4 10 10 13 14 12 11 23 24
38 39 39 43 45 49 53 57 60 64 79 88 93 97 104 99 77 60 51 29 16 8 11 22 19 21 12 11 4 10 10 18 21 20 18 23 15 38
Wind_Direction_500mb
309 309 305 302 296 290 291 297 299 303 305 307 308 310 307 302 298 296 293 291 291 295 294 290 282 274 258 250 247 244 243 245 242 244 251 254 255 253
304 296 300 298 298 302 297 294 295 296 294 300 303 302 302 300 300 296 293 289 293 294 294 296 295 284 273 261 251 248 242 244 238 240 245 251 251 252
309 307 306 305 304 297 298 297 298 298 294 294 295 307 309 314 312 302 293 293 291 289 290 288 291 291 282 273 262 251 247 244 240 240 243 246 250 249
311 313 311 308 301 304 303 298 296 304 298 298 305 310 310 304 301 301 304 296 290 286 281 288 293 291 287 278 271 261 252 247 241 238 243 243 248 251
313 309 312 309 305 300 305 305 304 303 298 301 306 312 314 313 307 306 303 301 297 295 298 304 299 297 293 285 275 269 262 249 238 235 240 242 242 247
310 309 312 306 302 305 308 308 306 308 314 312 312 315 314 318 309 306 302 299 291 296 287 289 297 308 308 304 294 273 267 258 237 231 234 236 234 237
313 314 310 297 310 307 310 307 311 315 313 313 315 316 316 309 308 309 302 308 307 307 292 284 293 298 297 296 293 285 275 250 235 228 225 226 221 224
313 315 311 318 294 302 302 317 324 323 320 316 315 312 316 312 314 309 308 297 291 305 285 288 299 300 298 295 283 276 262 246 230 224 217 215 217 222
311 307 314 309 313 315 320 323 324 322 317 314 308 308 308 313 308 303 305 297 289 292 289 286 297 301 304 295 292 267 263 250 234 217 210 207 214 223
304 310 318 323 322 328 330 330 330 327 318 311 309 313 318 313 305 296 296 291 282 285 288 279 297 301 306 302 293 271 268 251 229 205 198 204 213 218
310 319 329 329 336 337 336 336 344 342 333 327 326 322 322 319 318 305 302 296 283 286 282 282 293 303 313 299 276 273 264 250 206 194 196 204 213 221
342 358 332 325 340 340 340 347 348 351 352 347 340 333 335 331 326 313 305 303 283 283 302 246 294 314 320 311 327 316 254 241 210 196 198 205 217 221
352 350 340 341 334 333 339 355 354 351 353 350 345 335 330 327 324 319 314 306 295 274 278 268 284 292 302 313 324 343 284 238 217 205 212 213 226 219
350 349 345 344 336 339 343 360 357 357 352 349 345 341 335 325 316 318 317 315 299 281 274 262 267 279 293 306 311 322 341 263 209 200 203 218 213 210
348 340 337 337 332 332 342 352 355 359 358 352 354 347 339 328 314 304 298 307 316 300 281 261 254 263 277 280 298 312 318 291 203 202 220 214 206 205
350 350 345 335 337 342 354 351 352 353 360 357 354 349 344 338 334 322 299 300 303 305 310 289 258 255 271 283 287 305 308 276 186 199 222 203 201 205
1 354 353 353 354 355 0 351 350 351 356 359 1 355 350 346 341 339 323 303 287 288 298 295 282 254 261 253 257 291 308 271 229 206 210 208 207 201
16 10 5 4 1 358 357 353 353 353 353 2 3 359 355 350 345 346 340 327 314 298 287 277 252 245 241 249 269 258 9 355 258 198 195 201 206 198
24 17 13 8 3 1 358 356 352 352 348 359 4 3 358 353 349 347 344 338 331 326 312 274 224 211 231 244 219 212 241 282 256 172 196 207 209 209
24 17 12 7 3 1 359 354 352 351 352 357 4 5 2 357 352 348 342 342 344 336 325 170 207 208 217 251 212 169 276 263 261 220 219 212 214 207
16 15 10 7 4 359 357 353 353 351 351 356 6 7 4 1 0 356 349 353 1 320 254 206 179 184 185 344 359 218 265 226 195 210 206 206 207 201
11 11 7 6 2 359 357 355 354 353 354 1 8 7 7 8 4 2 0 354 17 332 138 154 159 159 214 300 305 176 136 144 108 99 139 182 179 195
6 6 4 3 0 359 358 356 355 351 356 2 9 8 8 7 9 12 12 12 359 92 146 164 181 200 256 325 181 130 125 135 129 122 111 123 117 147
Wind_Speed_850mb
31 28 29 28 29 30 32 33 38 49 48 44 51 48 48 50 54 55 56 58 59 56 55 57 65 65 72 84 86 77 73 69 53 51 55 52 50 54
21 24 25 25 27 29 30 32 35 42 54 48 51 53 55 57 57 61 64 64 63 57 53 53 54 58 62 66 85 95 89 89 67 59 56 58 57 55
22 24 26 30 30 29 29 32 35 40 54 62 60 67 72 74 67 60 57 57 55 51 58 64 55 55 57 64 71 87 98 100 82 75 66 59 59 58
24 26 29 33 34 32 31 38 45 52 54 67 72 75 74 63 62 60 59 53 52 50 54 62 53 54 58 59 68 76 85 93 94 86 75 64 59 59
25 29 36 34 31 32 45 51 49 52 53 63 77 76 78 76 66 61 56 53 44 48 44 50 60 61 58 61 60 69 78 79 89 96 79 70 59 60
29 33 35 30 34 45 48 47 48 58 63 67 72 72 71 72 62 67 59 48 50 46 46 48 48 52 58 54 53 52 64 66 73 93 79 67 63 59
33 33 28 35 43 41 47 52 55 63 67 64 69 70 72 60 62 61 64 68 65 51 42 35 40 45 48 50 52 46 42 49 64 76 73 64 61 52
33 30 31 32 35 46 46 54 63 64 66 64 72 72 76 72 72 67 63 62 56 54 29 42 43 45 45 45 46 52 43 44 57 65 68 68 60 51
30 31 34 30 37 44 54 60 61 57 51 56 60 70 76 77 70 67 67 57 57 53 45 50 41 42 41 44 51 43 40 46 51 61 66 65 57 51
27 30 31 30 35 47 55 59 61 53 44 51 58 68 67 62 57 56 59 62 57 53 37 48 37 43 43 42 46 39 36 40 46 58 65 60 54 48
23 18 21 28 41 48 51 54 58 62 60 61 64 62 63 43 40 38 44 49 48 54 31 32 38 37 39 31 20 34 32 35 46 55 55 50 47 41
15 16 28 34 35 43 41 48 61 68 73 69 63 61 49 37 36 33 40 39 40 46 32 24 28 36 35 35 35 27 28 29 48 49 50 44 37 40
22 22 20 29 32 37 41 44 55 66 71 76 74 62 53 39 33 28 34 43 37 44 48 43 45 31 32 41 43 26 19 23 33 48 47 49 40 43
23 25 28 30 32 33 35 45 56 63 70 76 77 67 57 46 37 31 27 42 38 40 37 37 39 32 37 41 42 34 20 18 25 39 44 40 45 49
25 28 32 35 36 35 41 46 52 65 73 79 77 71 63 55 46 37 32 30 39 33 31 34 39 34 35 34 39 41 32 10 20 30 28 34 53 60
31 33 38 39 37 40 39 39 42 58 72 80 78 74 69 57 50 36 37 34 31 37 28 24 32 34 32 27 29 36 24 11 12 27 27 36 55 57
31 30 34 38 40 46 44 41 43 50 69 79 81 78 76 65 53 43 32 34 35 35 38 30 22 24 25 26 30 31 10 10 4 24 29 31 42 47
28 30 33 37 41 46 47 49 49 55 63 86 89 84 82 72 56 47 38 30 29 33 37 28 21 24 25 27 25 17 6 9 8 17 19 26 34 44
31 35 37 40 43 45 47 50 55 55 58 86 91 89 85 74 61 51 43 32 24 25 28 25 25 26 23 21 7 16 9 8 3 8 23 23 32 34
37 37 39 41 44 47 50 53 56 58 64 86 94 97 88 77 65 54 42 38 32 15 10 15 22 24 22 10 9 7 16 10 6 11 19 23 22 29
38 38 39 42 45 48 50 52 56 62 68 87 94 101 95 83 66 56 45 39 27 12 10 11 17 23 12 15 3 1 7 9 2 3 12 19 24 22
38 39 41 43 46 48 51 55 60 64 73 92 94 102 99 88 75 60 48 40 22 10 5 19 21 14 7 10 15 4 10 10 13 14 12 11 23 24
38 39 39 43 45 49 53 57 60 64 79 88 93 97 104 99 77 60 51 29 16 8 11 22 19 21 12 11 4 10 10 18 21 20 18 23 15 38
Wind_Direction_850mb
309 309 305 302 296 290 291 297 299 303 305 307 308 310 307 302 298 296 293 291 291 295 294 290 282 274 258 250 247 244 243 245 242 244 251 254 255 253
304 296 300 298 298 302 297 294 295 296 294 300 303 302 302 300 300 296 293 289 293 294 294 296 295 284 273 261 251 248 242 244 238 240 245 251 251 252
309 307 306 305 304 297 298 297 298 298 294 294 295 307 309 314 312 302 293 293 291 289 290 288 291 291 282 273 262 251 247 244 240 240 243 246 250 249
311 313 311 308 301 304 303 298 296 304 298 298 305 310 310 304 301 301 304 296 290 286 281 288 293 291 287 278 271 261 252 247 241 238 243 243 248 251
313 309 312 309 305 300 305 305 304 303 298 301 306 312 314 313 307 306 303 301 297 295 298 304 299 297 293 285 275 269 262 249 238 235 240 242 242 247
310 309 312 306 302 305 308 308 306 308 314 312 312 315 314 318 309 306 302 299 291 296 287 289 297 308 308 304 294 273 267 258 237 231 234 236 234 237
313 314 310 297 310 307 310 307 311 315 313 313 315 316 316 309 308 309 302 308 307 307 292 284 293 298 297 296 293 285 275 250 235 228 225 226 221 224
313 315 311 318 294 302 302 317 324 323 320 316 315 312 316 312 314 309 308 297 291 305 285 288 299 300 298 295 283 276 262 246 230 224 217 215 217 222
311 307 314 309 313 315 320 323 324 322 317 314 308 308 308 313 308 303 305 297 289 292 289 286 297 301 304 295 292 267 263 250 234 217 210 207 214 223
304 310 318 323 322 328 330 330 330 327 318 311 309 313 318 313 305 296 296 291 282 285 288 279 297 301 306 302 293 271 268 251 229 205 198 204 213 218
310 319 329 329 336 337 336 336 344 342 333 327 326 322 322 319 318 305 302 296 283 286 282 282 293 303 313 299 276 273 264 250 206 194 196 204 213 221
342 358 332 325 340 340 340 347 348 351 352 347 340 333 335 331 326 313 305 303 283 283 302 246 294 314 320 311 327 316 254 241 210 196 198 205 217 221
352 350 340 341 334 333 339 355 354 351 353 350 345 335 330 327 324 319 314 306 295 274 278 268 284 292 302 313 324 343 284 238 217 205 212 213 226 219
350 349 345 344 336 339 343 360 357 357 352 349 345 341 335 325 316 318 317 315 299 281 274 262 267 279 293 306 311 322 341 263 209 200 203 218 213 210
348 340 337 337 332 332 342 352 355 359 358 352 354 347 339 328 314 304 298 307 316 300 281 261 254 263 277 280 298 312 318 291 203 202 220 214 206 205
350 350 345 335 337 342 354 351 352 353 360 357 354 349 344 338 334 322 299 300 303 305 310 289 258 255 271 283 287 305 308 276 186 199 222 203 201 205
1 354 353 353 354 355 0 351 350 351 356 359 1 355 350 346 341 339 323 303 287 288 298 295 282 254 261 253 257 291 308 271 229 206 210 208 207 201
16 10 5 4 1 358 357 353 353 353 353 2 3 359 355 350 345 346 340 327 314 298 287 277 252 245 241 249 269 258 9 355 258 198 195 201 206 198
24 17 13 8 3 1 358 356 352 352 348 359 4 3 358 353 349 347 344 338 331 326 312 274 224 211 231 244 219 212 241 282 256 172 196 207 209 209
24 17 12 7 3 1 359 354 352 351 352 357 4 5 2 357 352 348 342 342 344 336 325 170 207 208 217 251 212 169 276 263 261 220 219 212 214 207
16 15 10 7 4 359 357 353 353 351 351 356 6 7 4 1 0 356 349 353 1 320 254 206 179 184 185 344 359 218 265 226 195 210 206 206 207 201
11 11 7 6 2 359 357 355 354 353 354 1 8 7 7 8 4 2 0 354 17 332 138 154 159 159 214 300 305 176 136 144 108 99 139 182 179 195
6 6 4 3 0 359 358 356 355 351 356 2 9 8 8 7 9 12 12 12 359 92 146 164 181 200 256 325 181 130 125 135 129 122 111 123 117 147